{"data":{"norad_id":69421,"epoch":"2026-09-19T01:53:59.481024Z","epoch_age_seconds":151594,"freshness":"FRESH","line1":"1 69421U 26126B   26262.07916066  .00011780  00000+0  36660-3 0  9992","line2":"2 69421  97.2848 123.2882 0001722  88.6620 271.4820 15.33447236 17303","mean_motion":15.33447236,"eccentricity":0.0001722,"inclination_deg":97.2848,"raan_deg":123.2882,"arg_perigee_deg":88.662,"mean_anomaly_deg":271.482,"bstar":0.0003666,"rev_number":1730,"period_min":93.906067727263,"perigee_km":464.35804114293,"apogee_km":466.71500230381,"semimajor_km":6843.6735217234,"source":"CELESTRAK","updated_at":"2026-09-20T09:00:44.194208Z"}}